Home > Weather > Kragerø > Past weeks

Flag for Norway Weather for the Past 2 Weeks in Kragerø, Norway

Now
44 °F

Quite cool.


Feels Like: 38 °F
Forecast: 42 / 56 °F
Wind: 10 mph from Southwest

Location: Jomfruland Fyr

Current Time: May 3, 2016 at 1:19:23 AM

Latest Report: May 2, 2016 at 11:00 PM


Visibility: N/A

Pressure: 30.02 "Hg

Humidity: 91%

Dew Point: 41 °F

Location of KragerøLocation

Historic Weather in Kragerø — Graph

°F

Kragerø Temperature Yesterday

Maximum temperature yesterday: 49 °F (at 3:00 PM)
Minimum temperature yesterday: 44 °F (at 2:00 AM)
Average temperature yesterday: 47 °F

High & Low Weather Summary for the Past Weeks

 TemperatureHumidityPressure
High57 °F (Apr 21, 4:00 PM)92% (Apr 29, 11:00 PM)30.29 "Hg (Apr 29, 11:00 PM)
Low35 °F (Apr 23, 6:00 AM)27% (Apr 19, 2:00 PM)29.50 "Hg (Apr 18, 2:00 PM)
Average45 °F64%29.90 "Hg
* Reported Apr 17 10:00 PM — May 2 10:00 PM, Kragerø, Weather by CustomWeather, © 2016

Note: Actual official high and low records may vary slightly from our data, if they occured in-between our weather recording intervals... More about our weather records

Advertising

Kragerø Weather History for the Previous 24 Hours

Scroll right to see more
 ConditionsComfort  
Time TempWeatherWind HumidityBarometerVisibility
10:00 PM
Mon, May 2
47 °FCool.8 mph75%30.03 "HgN/A
9:00 PM47 °FCool.3 mph86%30.05 "HgN/A
8:00 PM47 °FCool.3 mph83%30.06 "HgN/A
7:00 PM47 °FCool.5 mph81%30.08 "HgN/A
6:00 PM48 °FCool.3 mph78%30.10 "HgN/A
5:00 PM48 °FCool.5 mph77%30.12 "HgN/A
4:00 PM49 °FCool.6 mph76%30.14 "HgN/A
3:00 PM49 °FCool.6 mph74%30.15 "HgN/A
2:00 PM49 °FCool.6 mph73%30.17 "HgN/A
1:00 PM49 °FCool.6 mph72%30.18 "HgN/A
12:00 PM47 °FCool.6 mph74%30.20 "HgN/A
11:00 AM46 °FCool.7 mph78%30.21 "HgN/A
10:00 AM46 °FCool.7 mph75%30.21 "HgN/A
9:00 AM46 °FCool.7 mph77%30.22 "HgN/A
8:00 AM45 °FCool.7 mph81%30.23 "HgN/A
6:00 AM44 °FQuite cool.7 mph84%30.24 "HgN/A
3:00 AM44 °FQuite cool.6 mph84%30.27 "HgN/A
2:00 AM44 °FQuite cool.7 mph80%30.28 "HgN/A
1:00 AM45 °FQuite cool.8 mph79%30.29 "HgN/A
Weather by CustomWeather, © 2016

See weather overviewHow to use our weather pages